Time,TemperatureF,DewpointF,PressureIn,WindDirection,WindDirectionDegrees,WindSpeedMPH,WindSpeedGustMPH,Humidity,HourlyPrecipIn,Conditions,Clouds,dailyrainin,SolarRadiationWatts/m^2,SoftwareType,DateUTC
2013-02-04 00:01:00,48.9,39.5,29.80,SW,218,20.0,22.0,70,0.00,,,0.00,0,Wunderground v.1.15,2013-02-04 00:01:00,
2013-02-04 00:07:00,49.0,39.6,29.80,West,281,20.0,24.0,70,0.00,,,0.00,0,Wunderground v.1.15,2013-02-04 00:07:00,
2013-02-04 00:13:00,49.1,40.1,29.80,NW,315,23.0,30.0,71,0.00,,,0.00,0,Wunderground v.1.15,2013-02-04 00:13:00,
2013-02-04 00:19:00,49.1,40.1,29.80,NNW,342,23.0,30.0,71,0.00,,,0.00,0,Wunderground v.1.15,2013-02-04 00:19:00,
2013-02-04 00:25:00,49.1,40.5,29.81,SE,145,22.0,28.0,72,0.00,,,0.00,0,Wunderground v.1.15,2013-02-04 00:25:00,
2013-02-04 00:30:00,49.1,40.8,29.81,WNW,288,22.0,22.0,73,0.00,,,0.00,0,Wunderground v.1.15,2013-02-04 00:30:00,
2013-02-04 00:36:00,49.3,41.4,29.81,NW,323,20.0,23.0,74,0.00,,,0.00,0,Wunderground v.1.15,2013-02-04 00:36:00,
2013-02-04 00:41:00,49.3,41.4,29.80,NNW,338,19.0,24.0,74,0.00,,,0.00,0,Wunderground v.1.15,2013-02-04 00:41:00,
2013-02-04 00:46:00,49.5,41.9,29.81,NNE,28,21.0,28.0,75,0.00,,,0.00,0,Wunderground v.1.15,2013-02-04 00:46:00,
2013-02-04 00:52:00,49.7,42.4,29.80,SW,221,23.0,24.0,76,0.00,,,0.00,0,Wunderground v.1.15,2013-02-04 00:52:00,
2013-02-04 00:57:00,49.8,42.9,29.81,NNW,334,23.0,32.0,77,0.00,,,0.00,0,Wunderground v.1.15,2013-02-04 00:57:00,
2013-02-04 01:03:00,49.9,43.3,29.81,NNW,329,23.0,31.0,78,0.00,,,0.00,0,Wunderground v.1.15,2013-02-04 01:03:00,
2013-02-04 01:09:00,49.6,43.4,29.82,NNW,339,24.0,31.0,79,0.00,,,0.00,0,Wunderground v.1.15,2013-02-04 01:09:00,
2013-02-04 01:15:00,49.2,43.0,29.82,NNW,333,23.0,24.0,79,0.00,,,0.00,0,Wunderground v.1.15,2013-02-04 01:15:00,
2013-02-04 01:20:00,48.9,42.7,29.82,North,349,22.0,22.0,79,0.00,,,0.00,0,Wunderground v.1.15,2013-02-04 01:20:00,
2013-02-04 01:25:00,48.7,42.5,29.83,NNW,345,24.0,34.0,79,0.00,,,0.00,0,Wunderground v.1.15,2013-02-04 01:25:00,
2013-02-04 01:31:00,48.1,42.2,29.83,North,4,22.0,22.0,80,0.00,,,0.00,0,Wunderground v.1.15,2013-02-04 01:31:00,
2013-02-04 01:36:00,47.9,41.7,29.83,SW,229,22.0,33.0,79,0.00,,,0.00,0,Wunderground v.1.15,2013-02-04 01:36:00,
2013-02-04 01:41:00,47.6,41.4,29.84,NW,315,23.0,26.0,79,0.00,,,0.00,0,Wunderground v.1.15,2013-02-04 01:41:00,
2013-02-04 01:47:00,46.9,40.1,29.84,North,9,22.0,28.0,77,0.00,,,0.00,0,Wunderground v.1.15,2013-02-04 01:47:00,
2013-02-04 01:53:00,46.4,39.6,29.84,WNW,291,23.0,27.0,77,0.00,,,0.00,0,Wunderground v.1.15,2013-02-04 01:53:00,
2013-02-04 01:58:00,46.0,38.9,29.85,North,359,22.0,27.0,76,0.00,,,0.00,0,Wunderground v.1.15,2013-02-04 01:58:00,
2013-02-04 02:04:00,45.9,38.8,29.85,ESE,109,21.0,31.0,76,0.00,,,0.00,0,Wunderground v.1.15,2013-02-04 02:04:00,
2013-02-04 02:10:00,45.6,38.5,29.85,NNW,331,21.0,21.0,76,0.00,,,0.00,0,Wunderground v.1.15,2013-02-04 02:10:00,
2013-02-04 02:16:00,45.4,38.3,29.86,NE,41,19.0,24.0,76,0.00,,,0.00,0,Wunderground v.1.15,2013-02-04 02:16:00,
2013-02-04 02:22:00,45.3,38.2,29.86,NW,317,19.0,27.0,76,0.00,,,0.00,0,Wunderground v.1.15,2013-02-04 02:22:00,
2013-02-04 02:28:00,45.2,38.1,29.86,NE,41,19.0,27.0,76,0.00,,,0.00,0,Wunderground v.1.15,2013-02-04 02:28:00,
2013-02-04 02:34:00,45.2,38.1,29.86,SW,229,21.0,31.0,76,0.00,,,0.00,0,Wunderground v.1.15,2013-02-04 02:34:00,
2013-02-04 02:40:00,45.0,37.9,29.86,North,4,21.0,21.0,76,0.00,,,0.00,0,Wunderground v.1.15,2013-02-04 02:40:00,
2013-02-04 02:46:00,45.0,37.9,29.85,SW,228,19.0,25.0,76,0.00,,,0.00,0,Wunderground v.1.15,2013-02-04 02:46:00,
2013-02-04 02:52:00,45.0,37.6,29.85,NNE,13,21.0,24.0,75,0.00,,,0.00,0,Wunderground v.1.15,2013-02-04 02:52:00,
2013-02-04 02:57:00,45.2,37.7,29.86,WNW,288,22.0,29.0,75,0.00,,,0.00,0,Wunderground v.1.15,2013-02-04 02:57:00,
2013-02-04 03:03:00,45.2,37.7,29.86,NNW,342,24.0,28.0,75,0.00,,,0.00,0,Wunderground v.1.15,2013-02-04 03:03:00,
2013-02-04 03:09:00,45.1,37.6,29.86,ENE,65,23.0,28.0,75,0.00,,,0.00,0,Wunderground v.1.15,2013-02-04 03:09:00,
2013-02-04 03:15:00,45.0,37.6,29.86,NW,322,24.0,37.0,75,0.00,,,0.00,0,Wunderground v.1.15,2013-02-04 03:15:00,
2013-02-04 03:20:00,45.0,37.6,29.85,North,4,23.0,23.0,75,0.00,,,0.00,0,Wunderground v.1.15,2013-02-04 03:20:00,
2013-02-04 03:26:00,44.8,37.7,29.85,NW,306,22.0,28.0,76,0.00,,,0.00,0,Wunderground v.1.15,2013-02-04 03:26:00,
2013-02-04 03:32:00,44.7,37.6,29.85,ENE,73,22.0,24.0,76,0.00,,,0.00,0,Wunderground v.1.15,2013-02-04 03:32:00,
2013-02-04 03:38:00,44.8,37.7,29.86,NNW,339,21.0,25.0,76,0.00,,,0.00,0,Wunderground v.1.15,2013-02-04 03:38:00,
2013-02-04 03:44:00,44.8,37.7,29.86,West,267,21.0,25.0,76,0.00,,,0.00,0,Wunderground v.1.15,2013-02-04 03:44:00,
2013-02-04 03:49:00,44.6,37.5,29.87,NNE,32,20.0,25.0,76,0.00,,,0.00,0,Wunderground v.1.15,2013-02-04 03:49:00,
2013-02-04 03:55:00,44.6,37.8,29.87,West,281,18.0,20.0,77,0.00,,,0.00,0,Wunderground v.1.15,2013-02-04 03:55:00,
2013-02-04 04:00:00,44.6,37.8,29.88,NE,34,18.0,18.0,77,0.00,,,0.00,0,Wunderground v.1.15,2013-02-04 04:00:00,
2013-02-04 04:06:00,44.5,37.7,29.88,SW,231,17.0,20.0,77,0.00,,,0.00,0,Wunderground v.1.15,2013-02-04 04:06:00,
2013-02-04 04:11:00,44.4,37.3,29.88,NE,36,18.0,24.0,76,0.00,,,0.00,0,Wunderground v.1.15,2013-02-04 04:11:00,
2013-02-04 04:16:00,44.5,37.4,29.88,North,350,20.0,25.0,76,0.00,,,0.00,0,Wunderground v.1.15,2013-02-04 04:16:00,
2013-02-04 04:22:00,44.5,37.1,29.87,West,265,20.0,22.0,75,0.00,,,0.00,0,Wunderground v.1.15,2013-02-04 04:22:00,
2013-02-04 04:28:00,44.4,37.3,29.87,NE,53,18.0,22.0,76,0.00,,,0.00,0,Wunderground v.1.15,2013-02-04 04:28:00,
2013-02-04 04:34:00,44.4,37.0,29.88,WNW,287,18.0,20.0,75,0.00,,,0.00,0,Wunderground v.1.15,2013-02-04 04:34:00,
2013-02-04 04:40:00,44.3,36.9,29.88,NE,43,16.0,16.0,75,0.00,,,0.00,0,Wunderground v.1.15,2013-02-04 04:40:00,
2013-02-04 04:46:00,44.4,36.6,29.88,WSW,258,17.0,20.0,74,0.00,,,0.00,0,Wunderground v.1.15,2013-02-04 04:46:00,
2013-02-04 04:51:00,44.7,36.9,29.88,NE,38,19.0,22.0,74,0.00,,,0.00,0,Wunderground v.1.15,2013-02-04 04:51:00,
2013-02-04 04:57:00,44.9,36.8,29.88,SW,229,21.0,30.0,73,0.00,,,0.00,0,Wunderground v.1.15,2013-02-04 04:57:00,
2013-02-04 05:03:00,45.0,36.9,29.88,NE,44,21.0,22.0,73,0.00,,,0.00,0,Wunderground v.1.15,2013-02-04 05:03:00,
2013-02-04 05:04:00,45.0,36.9,29.88,ENE,60,21.0,22.0,73,0.00,,,0.00,0,Wunderground v.1.15,2013-02-04 05:04:00,
2013-02-04 05:05:00,44.9,36.8,29.88,ENE,70,21.0,25.0,73,0.00,,,0.00,0,Wunderground v.1.15,2013-02-04 05:05:00,
2013-02-04 05:10:00,44.9,36.8,29.88,NNW,340,22.0,22.0,73,0.00,,,0.00,0,Wunderground v.1.15,2013-02-04 05:10:00,
2013-02-04 05:11:00,44.8,36.7,29.88,North,359,22.0,22.0,73,0.00,,,0.00,0,Wunderground v.1.15,2013-02-04 05:11:00,
2013-02-04 05:16:00,44.7,36.6,29.88,SW,215,21.0,23.0,73,0.00,,,0.00,0,Wunderground v.1.15,2013-02-04 05:16:00,
2013-02-04 05:21:00,44.4,36.3,29.87,NNE,15,18.0,22.0,73,0.00,,,0.00,0,Wunderground v.1.15,2013-02-04 05:21:00,
2013-02-04 05:26:00,44.1,36.7,29.87,SSW,201,17.0,22.0,75,0.00,,,0.00,0,Wunderground v.1.15,2013-02-04 05:26:00,
2013-02-04 05:32:00,43.9,36.8,29.88,NNE,21,17.0,22.0,76,0.00,,,0.00,0,Wunderground v.1.15,2013-02-04 05:32:00,
2013-02-04 05:37:00,43.9,36.8,29.88,WSW,239,19.0,24.0,76,0.00,,,0.00,0,Wunderground v.1.15,2013-02-04 05:37:00,
2013-02-04 05:42:00,43.8,37.1,29.88,NNE,19,19.0,19.0,77,0.00,,,0.00,0,Wunderground v.1.15,2013-02-04 05:42:00,
2013-02-04 05:48:00,43.6,37.2,29.88,SW,216,17.0,20.0,78,0.00,,,0.00,0,Wunderground v.1.15,2013-02-04 05:48:00,
2013-02-04 05:54:00,43.6,37.2,29.88,NE,47,17.0,22.0,78,0.00,,,0.00,0,Wunderground v.1.15,2013-02-04 05:54:00,
2013-02-04 05:59:00,43.6,37.5,29.88,WNW,282,20.0,26.0,79,0.00,,,0.00,0,Wunderground v.1.15,2013-02-04 05:59:00,
2013-02-04 06:04:00,43.5,37.4,29.88,NE,54,21.0,25.0,79,0.00,,,0.00,0,Wunderground v.1.15,2013-02-04 06:04:00,
2013-02-04 06:09:00,43.3,37.2,29.88,West,262,19.0,25.0,79,0.00,,,0.00,0,Wunderground v.1.15,2013-02-04 06:09:00,
2013-02-04 06:15:00,43.3,37.5,29.88,NNE,28,15.0,21.0,80,0.00,,,0.00,0,Wunderground v.1.15,2013-02-04 06:15:00,
2013-02-04 06:21:00,43.2,37.4,29.88,SSW,199,17.0,17.0,80,0.00,,,0.00,0,Wunderground v.1.15,2013-02-04 06:21:00,
2013-02-04 06:26:00,42.9,37.2,29.88,North,349,17.0,21.0,80,0.00,,,0.00,0,Wunderground v.1.15,2013-02-04 06:26:00,
2013-02-04 06:32:00,42.9,37.2,29.87,SW,229,16.0,18.0,80,0.00,,,0.00,0,Wunderground v.1.15,2013-02-04 06:32:00,
2013-02-04 06:37:00,42.8,37.1,29.88,NNE,28,17.0,20.0,80,0.00,,,0.00,0,Wunderground v.1.15,2013-02-04 06:37:00,
2013-02-04 06:42:00,42.9,36.8,29.88,West,277,18.0,25.0,79,0.00,,,0.00,0,Wunderground v.1.15,2013-02-04 06:42:00,
2013-02-04 06:47:00,42.8,36.7,29.88,SE,130,19.0,27.0,79,0.00,,,0.00,0,Wunderground v.1.15,2013-02-04 06:47:00,
2013-02-04 06:53:00,42.8,36.7,29.88,NE,39,19.0,21.0,79,0.00,,,0.00,0,Wunderground v.1.15,2013-02-04 06:53:00,
2013-02-04 06:59:00,42.8,36.7,29.87,North,352,19.0,22.0,79,0.00,,,0.00,0,Wunderground v.1.15,2013-02-04 06:59:00,
2013-02-04 07:04:00,42.7,36.6,29.87,SW,224,19.0,19.0,79,0.00,,,0.00,0,Wunderground v.1.15,2013-02-04 07:04:00,
2013-02-04 07:09:00,42.6,36.5,29.87,ENE,74,17.0,23.0,79,0.00,,,0.00,0,Wunderground v.1.15,2013-02-04 07:09:00,
2013-02-04 07:15:00,42.5,36.4,29.88,NNE,13,18.0,24.0,79,0.00,,,0.00,0,Wunderground v.1.15,2013-02-04 07:15:00,
2013-02-04 07:21:00,42.6,36.5,29.88,WSW,250,18.0,18.0,79,0.00,,,0.00,0,Wunderground v.1.15,2013-02-04 07:21:00,
2013-02-04 07:26:00,42.6,36.5,29.88,ENE,75,19.0,29.0,79,0.00,,,0.00,0,Wunderground v.1.15,2013-02-04 07:26:00,
2013-02-04 07:32:00,42.6,36.5,29.88,NNE,31,21.0,24.0,79,0.00,,,0.00,0,Wunderground v.1.15,2013-02-04 07:32:00,
2013-02-04 07:37:00,42.6,36.5,29.88,North,359,22.0,32.0,79,0.00,,,0.00,0,Wunderground v.1.15,2013-02-04 07:37:00,
2013-02-04 07:43:00,42.6,36.5,29.88,NNW,348,23.0,24.0,79,0.00,,,0.00,0,Wunderground v.1.15,2013-02-04 07:43:00,
2013-02-04 07:48:00,42.5,36.4,29.88,SE,142,21.0,26.0,79,0.00,,,0.00,0,Wunderground v.1.15,2013-02-04 07:48:00,
2013-02-04 07:54:00,42.5,36.8,29.88,NNE,31,19.0,24.0,80,0.00,,,0.00,0,Wunderground v.1.15,2013-02-04 07:54:00,
2013-02-04 08:00:00,42.6,36.9,29.88,NNW,329,20.0,21.0,80,0.00,,,0.00,0,Wunderground v.1.15,2013-02-04 08:00:00,
2013-02-04 08:06:00,42.6,36.5,29.87,South,188,20.0,31.0,79,0.00,,,0.00,0,Wunderground v.1.15,2013-02-04 08:06:00,
2013-02-04 08:12:00,42.5,36.4,29.87,NNE,19,20.0,20.0,79,0.00,,,0.00,0,Wunderground v.1.15,2013-02-04 08:12:00,
2013-02-04 08:18:00,42.5,36.4,29.87,NNW,342,19.0,24.0,79,0.00,,,0.00,5,Wunderground v.1.15,2013-02-04 08:18:00,
2013-02-04 08:23:00,42.4,36.3,29.88,SSW,203,20.0,24.0,79,0.00,,,0.00,11,Wunderground v.1.15,2013-02-04 08:23:00,
2013-02-04 08:29:00,42.4,36.0,29.88,South,184,20.0,24.0,78,0.00,,,0.00,12,Wunderground v.1.15,2013-02-04 08:29:00,
2013-02-04 08:34:00,42.5,36.1,29.89,ENE,71,20.0,23.0,78,0.00,,,0.00,23,Wunderground v.1.15,2013-02-04 08:34:00,
2013-02-04 08:40:00,42.6,36.2,29.89,NE,43,20.0,20.0,78,0.00,,,0.00,18,Wunderground v.1.15,2013-02-04 08:40:00,
2013-02-04 08:46:00,42.6,36.2,29.88,NE,43,21.0,24.0,78,0.00,,,0.00,14,Wunderground v.1.15,2013-02-04 08:46:00,
2013-02-04 08:52:00,42.7,36.3,29.89,NW,322,21.0,24.0,78,0.00,,,0.00,30,Wunderground v.1.15,2013-02-04 08:52:00,
2013-02-04 08:57:00,42.8,36.4,29.89,SW,227,22.0,25.0,78,0.00,,,0.00,23,Wunderground v.1.15,2013-02-04 08:57:00,
2013-02-04 09:02:00,42.7,36.6,29.88,SE,134,22.0,27.0,79,0.00,,,0.00,21,Wunderground v.1.15,2013-02-04 09:02:00,
2013-02-04 09:08:00,42.8,36.7,29.88,ENE,60,20.0,27.0,79,0.00,,,0.00,47,Wunderground v.1.15,2013-02-04 09:08:00,
2013-02-04 09:13:00,43.0,36.9,29.89,NNW,329,21.0,26.0,79,0.00,,,0.00,62,Wunderground v.1.15,2013-02-04 09:13:00,
2013-02-04 09:19:00,43.3,37.5,29.90,WSW,245,22.0,29.0,80,0.00,,,0.00,33,Wunderground v.1.15,2013-02-04 09:19:00,
2013-02-04 09:25:00,43.0,37.3,29.89,South,179,21.0,29.0,80,0.00,,,0.00,54,Wunderground v.1.15,2013-02-04 09:25:00,
2013-02-04 09:30:00,42.9,37.2,29.88,SE,145,21.0,21.0,80,0.00,,,0.00,39,Wunderground v.1.15,2013-02-04 09:30:00,
2013-02-04 09:36:00,42.6,36.9,29.88,SE,132,22.0,32.0,80,0.00,,,0.00,37,Wunderground v.1.15,2013-02-04 09:36:00,
2013-02-04 09:42:00,42.7,37.0,29.89,NE,51,24.0,28.0,80,0.00,,,0.01,56,Wunderground v.1.15,2013-02-04 09:42:00,
2013-02-04 09:47:00,42.8,37.1,29.89,North,9,25.0,29.0,80,0.00,,,0.01,28,Wunderground v.1.15,2013-02-04 09:47:00,
2013-02-04 09:52:00,42.6,36.9,29.89,WNW,299,24.0,27.0,80,0.00,,,0.01,32,Wunderground v.1.15,2013-02-04 09:52:00,
2013-02-04 09:58:00,42.3,36.6,29.88,West,259,24.0,27.0,80,0.00,,,0.01,32,Wunderground v.1.15,2013-02-04 09:58:00,
2013-02-04 10:03:00,42.3,36.9,29.88,NE,55,22.0,30.0,81,0.00,,,0.01,40,Wunderground v.1.15,2013-02-04 10:03:00,
2013-02-04 10:08:00,42.6,36.9,29.88,NW,319,21.0,30.0,80,0.00,,,0.01,88,Wunderground v.1.15,2013-02-04 10:08:00,
2013-02-04 10:13:00,43.1,37.3,29.89,South,182,22.0,25.0,80,0.00,,,0.01,111,Wunderground v.1.15,2013-02-04 10:13:00,
2013-02-04 10:19:00,43.4,37.6,29.88,East,79,23.0,30.0,80,0.00,,,0.01,105,Wunderground v.1.15,2013-02-04 10:19:00,
2013-02-04 10:24:00,43.3,37.5,29.89,North,4,24.0,30.0,80,0.00,,,0.01,46,Wunderground v.1.15,2013-02-04 10:24:00,
2013-02-04 10:29:00,43.1,37.0,29.88,West,261,24.0,30.0,79,0.00,,,0.01,49,Wunderground v.1.15,2013-02-04 10:29:00,
2013-02-04 10:34:00,43.3,37.5,29.88,NE,56,24.0,36.0,80,0.00,,,0.01,51,Wunderground v.1.15,2013-02-04 10:34:00,
2013-02-04 10:40:00,43.5,37.4,29.88,NNW,335,23.0,24.0,79,0.00,,,0.01,51,Wunderground v.1.15,2013-02-04 10:40:00,
2013-02-04 10:46:00,43.7,37.6,29.88,WNW,303,23.0,28.0,79,0.00,,,0.01,51,Wunderground v.1.15,2013-02-04 10:46:00,
2013-02-04 10:52:00,43.8,37.7,29.88,SE,130,25.0,31.0,79,0.00,,,0.01,51,Wunderground v.1.15,2013-02-04 10:52:00,
2013-02-04 10:57:00,44.1,38.0,29.88,WNW,288,23.0,31.0,79,0.00,,,0.01,54,Wunderground v.1.15,2013-02-04 10:57:00,
2013-02-04 11:03:00,44.1,37.7,29.87,East,94,21.0,27.0,78,0.00,,,0.01,58,Wunderground v.1.15,2013-02-04 11:03:00,
2013-02-04 11:08:00,44.3,37.9,29.87,WNW,283,23.0,28.0,78,0.00,,,0.01,70,Wunderground v.1.15,2013-02-04 11:08:00,
2013-02-04 11:14:00,44.4,37.6,29.87,ENE,57,23.0,28.0,77,0.00,,,0.01,123,Wunderground v.1.15,2013-02-04 11:14:00,
2013-02-04 11:20:00,44.6,37.8,29.87,WSW,244,24.0,24.0,77,0.00,,,0.01,200,Wunderground v.1.15,2013-02-04 11:20:00,
2013-02-04 11:26:00,44.7,37.6,29.87,NNE,31,24.0,31.0,76,0.00,,,0.01,181,Wunderground v.1.15,2013-02-04 11:26:00,
2013-02-04 11:31:00,45.1,37.6,29.87,West,264,25.0,25.0,75,0.00,,,0.01,197,Wunderground v.1.15,2013-02-04 11:31:00,
2013-02-04 11:37:00,45.3,37.8,29.87,ENE,65,23.0,29.0,75,0.00,,,0.01,185,Wunderground v.1.15,2013-02-04 11:37:00,
2013-02-04 11:43:00,45.5,38.0,29.87,WNW,303,24.0,28.0,75,0.00,,,0.01,301,Wunderground v.1.15,2013-02-04 11:43:00,
2013-02-04 11:48:00,45.4,38.3,29.87,East,82,23.0,34.0,76,0.00,,,0.01,153,Wunderground v.1.15,2013-02-04 11:48:00,
2013-02-04 11:54:00,45.1,38.0,29.87,WNW,292,23.0,28.0,76,0.00,,,0.01,63,Wunderground v.1.15,2013-02-04 11:54:00,
2013-02-04 11:59:00,44.7,37.6,29.87,ENE,78,26.0,33.0,76,0.00,,,0.01,67,Wunderground v.1.15,2013-02-04 11:59:00,
2013-02-04 12:05:00,44.3,37.5,29.87,SW,235,29.0,45.0,77,0.00,,,0.01,76,Wunderground v.1.15,2013-02-04 12:05:00,
2013-02-04 12:11:00,44.0,37.6,29.86,SSW,213,28.0,32.0,78,0.00,,,0.01,72,Wunderground v.1.15,2013-02-04 12:11:00,
2013-02-04 12:16:00,44.3,38.2,29.86,NE,41,27.0,32.0,79,0.00,,,0.01,100,Wunderground v.1.15,2013-02-04 12:16:00,
2013-02-04 12:21:00,44.7,38.6,29.85,West,277,25.0,27.0,79,0.00,,,0.01,308,Wunderground v.1.15,2013-02-04 12:21:00,
2013-02-04 12:26:00,44.9,38.5,29.86,ENE,64,24.0,28.0,78,0.00,,,0.01,315,Wunderground v.1.15,2013-02-04 12:26:00,
2013-02-04 12:31:00,44.7,38.3,29.85,NNW,343,24.0,31.0,78,0.00,,,0.01,109,Wunderground v.1.15,2013-02-04 12:31:00,
2013-02-04 12:37:00,44.5,38.1,29.85,West,270,26.0,31.0,78,0.00,,,0.01,84,Wunderground v.1.15,2013-02-04 12:37:00,
2013-02-04 12:43:00,44.4,38.3,29.85,ENE,78,27.0,29.0,79,0.00,,,0.01,128,Wunderground v.1.15,2013-02-04 12:43:00,
2013-02-04 12:49:00,44.7,38.3,29.85,East,96,24.0,29.0,78,0.00,,,0.01,146,Wunderground v.1.15,2013-02-04 12:49:00,
2013-02-04 12:54:00,45.0,38.6,29.85,WNW,292,25.0,31.0,78,0.00,,,0.01,295,Wunderground v.1.15,2013-02-04 12:54:00,
2013-02-04 13:00:00,45.2,38.7,29.84,ESE,109,25.0,32.0,78,0.00,,,0.01,364,Wunderground v.1.15,2013-02-04 13:00:00,
2013-02-04 13:06:00,45.2,38.4,29.84,WNW,295,25.0,34.0,77,0.00,,,0.01,167,Wunderground v.1.15,2013-02-04 13:06:00,
2013-02-04 13:12:00,45.3,38.2,29.85,NNW,331,26.0,31.0,76,0.00,,,0.01,239,Wunderground v.1.15,2013-02-04 13:12:00,
2013-02-04 13:17:00,45.5,38.4,29.84,SSW,194,27.0,35.0,76,0.00,,,0.01,162,Wunderground v.1.15,2013-02-04 13:17:00,
2013-02-04 13:23:00,45.7,38.6,29.84,NW,316,26.0,27.0,76,0.00,,,0.01,325,Wunderground v.1.15,2013-02-04 13:23:00,
2013-02-04 13:28:00,45.8,39.0,29.84,ENE,67,25.0,36.0,77,0.00,,,0.01,330,Wunderground v.1.15,2013-02-04 13:28:00,
2013-02-04 13:34:00,46.2,39.1,29.83,WNW,285,26.0,27.0,76,0.00,,,0.01,330,Wunderground v.1.15,2013-02-04 13:34:00,
2013-02-04 13:39:00,46.1,39.0,29.83,WNW,283,26.0,30.0,76,0.00,,,0.01,301,Wunderground v.1.15,2013-02-04 13:39:00,
2013-02-04 13:44:00,46.3,39.1,29.83,NE,50,27.0,30.0,76,0.00,,,0.01,401,Wunderground v.1.15,2013-02-04 13:44:00,
2013-02-04 13:50:00,46.2,39.1,29.83,WNW,303,26.0,26.0,76,0.00,,,0.01,311,Wunderground v.1.15,2013-02-04 13:50:00,
2013-02-04 13:55:00,45.9,38.8,29.83,NNW,327,25.0,26.0,76,0.00,,,0.01,183,Wunderground v.1.15,2013-02-04 13:55:00,
2013-02-04 14:00:00,45.6,38.8,29.83,WNW,283,24.0,24.0,77,0.00,,,0.01,146,Wunderground v.1.15,2013-02-04 14:00:00,
2013-02-04 14:06:00,45.7,38.9,29.82,West,262,24.0,28.0,77,0.00,,,0.01,121,Wunderground v.1.15,2013-02-04 14:06:00,
2013-02-04 14:12:00,45.4,38.6,29.83,West,263,25.0,27.0,77,0.00,,,0.01,88,Wunderground v.1.15,2013-02-04 14:12:00,
2013-02-04 14:18:00,44.8,38.4,29.83,West,281,24.0,28.0,78,0.00,,,0.01,81,Wunderground v.1.15,2013-02-04 14:18:00,
2013-02-04 14:23:00,44.8,38.4,29.82,WSW,244,24.0,25.0,78,0.00,,,0.01,199,Wunderground v.1.15,2013-02-04 14:23:00,
2013-02-04 14:28:00,45.1,38.6,29.81,WSW,248,24.0,30.0,78,0.00,,,0.01,199,Wunderground v.1.15,2013-02-04 14:28:00,
2013-02-04 14:34:00,44.7,37.9,29.81,SE,145,22.0,28.0,77,0.00,,,0.01,98,Wunderground v.1.15,2013-02-04 14:34:00,
2013-02-04 14:39:00,45.1,38.3,29.81,NNE,29,24.0,29.0,77,0.00,,,0.01,214,Wunderground v.1.15,2013-02-04 14:39:00,
2013-02-04 14:45:00,44.8,37.7,29.81,NNE,20,25.0,32.0,76,0.00,,,0.01,62,Wunderground v.1.15,2013-02-04 14:45:00,
2013-02-04 14:50:00,44.7,37.9,29.81,North,355,25.0,28.0,77,0.00,,,0.01,127,Wunderground v.1.15,2013-02-04 14:50:00,
2013-02-04 14:56:00,45.5,38.7,29.81,NE,37,24.0,29.0,77,0.00,,,0.01,246,Wunderground v.1.15,2013-02-04 14:56:00,
2013-02-04 15:02:00,44.8,38.0,29.81,South,182,23.0,29.0,77,0.00,,,0.01,39,Wunderground v.1.15,2013-02-04 15:02:00,
2013-02-04 15:07:00,44.4,37.6,29.81,NNE,31,25.0,29.0,77,0.00,,,0.01,53,Wunderground v.1.15,2013-02-04 15:07:00,
2013-02-04 15:13:00,44.4,38.0,29.81,NNW,333,24.0,25.0,78,0.00,,,0.01,77,Wunderground v.1.15,2013-02-04 15:13:00,
2013-02-04 15:18:00,44.5,38.4,29.80,North,9,23.0,26.0,79,0.00,,,0.01,118,Wunderground v.1.15,2013-02-04 15:18:00,
2013-02-04 15:24:00,45.2,38.7,29.80,NE,56,23.0,31.0,78,0.00,,,0.01,156,Wunderground v.1.15,2013-02-04 15:24:00,
2013-02-04 15:30:00,45.9,39.1,29.79,ENE,69,22.0,26.0,77,0.00,,,0.01,283,Wunderground v.1.15,2013-02-04 15:30:00,
2013-02-04 15:35:00,45.6,38.5,29.79,WSW,240,25.0,35.0,76,0.00,,,0.01,81,Wunderground v.1.15,2013-02-04 15:35:00,
2013-02-04 15:40:00,45.2,37.7,29.79,West,272,28.0,28.0,75,0.00,,,0.01,63,Wunderground v.1.15,2013-02-04 15:40:00,
2013-02-04 15:45:00,44.8,37.4,29.79,SSE,147,28.0,34.0,75,0.00,,,0.01,58,Wunderground v.1.15,2013-02-04 15:45:00,
2013-02-04 15:51:00,44.6,36.8,29.79,NW,307,28.0,28.0,74,0.00,,,0.01,49,Wunderground v.1.15,2013-02-04 15:51:00,
2013-02-04 15:57:00,44.3,36.5,29.78,NNW,328,24.0,28.0,74,0.00,,,0.01,47,Wunderground v.1.15,2013-02-04 15:57:00,
2013-02-04 16:02:00,44.3,36.5,29.79,WSW,248,25.0,32.0,74,0.00,,,0.01,53,Wunderground v.1.15,2013-02-04 16:02:00,
2013-02-04 16:08:00,44.1,36.3,29.78,WNW,292,24.0,32.0,74,0.00,,,0.01,40,Wunderground v.1.15,2013-02-04 16:08:00,
2013-02-04 16:13:00,43.9,36.5,29.79,East,88,23.0,28.0,75,0.00,,,0.01,25,Wunderground v.1.15,2013-02-04 16:13:00,
2013-02-04 16:19:00,43.7,36.6,29.78,North,350,24.0,30.0,76,0.00,,,0.01,26,Wunderground v.1.15,2013-02-04 16:19:00,
2013-02-04 16:24:00,43.7,36.6,29.77,North,4,24.0,34.0,76,0.00,,,0.01,49,Wunderground v.1.15,2013-02-04 16:24:00,
2013-02-04 16:29:00,43.6,36.5,29.77,South,188,25.0,34.0,76,0.00,,,0.01,32,Wunderground v.1.15,2013-02-04 16:29:00,
2013-02-04 16:35:00,43.4,36.7,29.76,SW,231,22.0,27.0,77,0.00,,,0.01,14,Wunderground v.1.15,2013-02-04 16:35:00,
2013-02-04 16:41:00,43.2,36.8,29.77,SW,219,21.0,23.0,78,0.00,,,0.01,12,Wunderground v.1.15,2013-02-04 16:41:00,
2013-02-04 16:47:00,43.4,37.0,29.77,NNW,335,23.0,30.0,78,0.00,,,0.01,12,Wunderground v.1.15,2013-02-04 16:47:00,
2013-02-04 16:52:00,43.3,36.9,29.77,SE,130,24.0,24.0,78,0.00,,,0.01,18,Wunderground v.1.15,2013-02-04 16:52:00,
2013-02-04 16:57:00,43.3,36.9,29.76,ENE,78,23.0,37.0,78,0.00,,,0.01,14,Wunderground v.1.15,2013-02-04 16:57:00,
2013-02-04 17:03:00,43.2,36.8,29.76,NNE,23,27.0,36.0,78,0.00,,,0.01,5,Wunderground v.1.15,2013-02-04 17:03:00,
2013-02-04 17:08:00,43.0,36.6,29.76,SSE,149,29.0,36.0,78,0.00,,,0.01,5,Wunderground v.1.15,2013-02-04 17:08:00,
2013-02-04 17:14:00,42.9,36.5,29.76,East,99,28.0,30.0,78,0.00,,,0.01,0,Wunderground v.1.15,2013-02-04 17:14:00,
2013-02-04 17:19:00,42.7,36.3,29.76,SE,136,26.0,30.0,78,0.00,,,0.01,0,Wunderground v.1.15,2013-02-04 17:19:00,
2013-02-04 17:24:00,42.4,36.0,29.76,SW,214,27.0,30.0,78,0.00,,,0.01,0,Wunderground v.1.15,2013-02-04 17:24:00,
2013-02-04 17:30:00,42.1,36.1,29.76,NNW,327,26.0,26.0,79,0.00,,,0.01,0,Wunderground v.1.15,2013-02-04 17:30:00,
2013-02-04 17:35:00,41.8,35.8,29.76,NNE,30,25.0,31.0,79,0.00,,,0.01,0,Wunderground v.1.15,2013-02-04 17:35:00,
2013-02-04 17:41:00,41.5,35.8,29.75,NNE,13,23.0,27.0,80,0.00,,,0.01,0,Wunderground v.1.15,2013-02-04 17:41:00,
2013-02-04 17:46:00,41.3,35.6,29.75,ESE,112,21.0,30.0,80,0.00,,,0.01,0,Wunderground v.1.15,2013-02-04 17:46:00,
2013-02-04 17:52:00,41.3,35.3,29.75,NE,46,21.0,25.0,79,0.00,,,0.01,0,Wunderground v.1.15,2013-02-04 17:52:00,
2013-02-04 17:57:00,41.3,35.3,29.74,South,186,22.0,28.0,79,0.00,,,0.01,0,Wunderground v.1.15,2013-02-04 17:57:00,
2013-02-04 18:03:00,41.2,35.2,29.74,South,171,21.0,30.0,79,0.00,,,0.01,0,Wunderground v.1.15,2013-02-04 18:03:00,
2013-02-04 18:08:00,41.2,35.2,29.73,NW,306,20.0,30.0,79,0.00,,,0.01,0,Wunderground v.1.15,2013-02-04 18:08:00,
2013-02-04 18:14:00,41.2,35.5,29.73,NNE,17,19.0,23.0,80,0.00,,,0.01,0,Wunderground v.1.15,2013-02-04 18:14:00,
2013-02-04 18:20:00,41.3,35.6,29.73,East,92,20.0,20.0,80,0.00,,,0.01,0,Wunderground v.1.15,2013-02-04 18:20:00,
2013-02-04 18:26:00,41.3,35.6,29.72,NW,310,21.0,25.0,80,0.00,,,0.01,0,Wunderground v.1.15,2013-02-04 18:26:00,
2013-02-04 18:32:00,41.3,35.3,29.73,SE,132,28.0,36.0,79,0.00,,,0.01,0,Wunderground v.1.15,2013-02-04 18:32:00,
2013-02-04 18:38:00,40.4,34.7,29.72,SSW,194,31.0,38.0,80,0.00,,,0.01,0,Wunderground v.1.15,2013-02-04 18:38:00,
2013-02-04 18:44:00,40.2,34.5,29.72,NW,309,25.0,32.0,80,0.00,,,0.02,0,Wunderground v.1.15,2013-02-04 18:44:00,
2013-02-04 18:50:00,39.9,34.2,29.72,North,4,28.0,28.0,80,0.00,,,0.02,0,Wunderground v.1.15,2013-02-04 18:50:00,
2013-02-04 18:56:00,39.5,33.5,29.72,ESE,116,29.0,37.0,79,0.06,,,0.02,0,Wunderground v.1.15,2013-02-04 18:56:00,
2013-02-04 19:02:00,39.2,32.9,29.72,North,351,29.0,30.0,78,0.06,,,0.02,0,Wunderground v.1.15,2013-02-04 19:02:00,
2013-02-04 19:08:00,39.0,32.7,29.72,SSE,167,27.0,30.0,78,0.05,,,0.03,0,Wunderground v.1.15,2013-02-04 19:08:00,
2013-02-04 19:13:00,38.7,32.4,29.72,SSE,167,27.0,28.0,78,0.05,,,0.03,0,Wunderground v.1.15,2013-02-04 19:13:00,
2013-02-04 19:18:00,38.5,32.2,29.71,ENE,67,26.0,30.0,78,0.06,,,0.04,0,Wunderground v.1.15,2013-02-04 19:18:00,
2013-02-04 19:24:00,38.2,31.6,29.72,NNE,23,25.0,31.0,77,0.06,,,0.04,0,Wunderground v.1.15,2013-02-04 19:24:00,
2013-02-04 19:30:00,38.0,31.4,29.72,SE,138,25.0,40.0,77,0.06,,,0.05,0,Wunderground v.1.15,2013-02-04 19:30:00,
2013-02-04 19:35:00,37.4,31.2,29.72,East,93,26.0,33.0,78,0.06,,,0.05,0,Wunderground v.1.15,2013-02-04 19:35:00,
2013-02-04 19:41:00,36.7,30.2,29.71,West,281,26.0,29.0,77,0.05,,,0.06,0,Wunderground v.1.15,2013-02-04 19:41:00,
2013-02-04 19:46:00,36.5,29.7,29.71,ENE,76,24.0,29.0,76,0.05,,,0.06,0,Wunderground v.1.15,2013-02-04 19:46:00,
2013-02-04 19:51:00,36.5,29.7,29.71,North,359,22.0,22.0,76,0.04,,,0.06,0,Wunderground v.1.15,2013-02-04 19:51:00,
2013-02-04 19:57:00,36.6,29.7,29.70,West,278,22.0,28.0,76,0.00,,,0.06,0,Wunderground v.1.15,2013-02-04 19:57:00,
2013-02-04 20:02:00,37.0,30.5,29.70,NE,43,23.0,27.0,77,0.00,,,0.06,0,Wunderground v.1.15,2013-02-04 20:02:00,
2013-02-04 20:08:00,37.3,31.4,29.69,West,269,27.0,41.0,79,0.00,,,0.06,0,Wunderground v.1.15,2013-02-04 20:08:00,
2013-02-04 20:14:00,37.0,31.4,29.68,North,4,28.0,43.0,80,0.00,,,0.06,0,Wunderground v.1.15,2013-02-04 20:14:00,
2013-02-04 20:20:00,36.9,31.3,29.68,ESE,105,28.0,28.0,80,0.00,,,0.06,0,Wunderground v.1.15,2013-02-04 20:20:00,
2013-02-04 20:25:00,37.0,31.4,29.69,NNW,333,26.0,33.0,80,0.00,,,0.06,0,Wunderground v.1.15,2013-02-04 20:25:00,
2013-02-04 20:31:00,37.1,31.8,29.68,NE,53,25.0,25.0,81,0.00,,,0.06,0,Wunderground v.1.15,2013-02-04 20:31:00,
2013-02-04 20:36:00,37.2,31.9,29.68,West,275,23.0,26.0,81,0.00,,,0.06,0,Wunderground v.1.15,2013-02-04 20:36:00,
2013-02-04 20:42:00,37.1,31.5,29.68,West,268,23.0,25.0,80,0.00,,,0.06,0,Wunderground v.1.15,2013-02-04 20:42:00,
2013-02-04 20:47:00,36.9,31.3,29.68,South,174,22.0,28.0,80,0.00,,,0.06,0,Wunderground v.1.15,2013-02-04 20:47:00,
2013-02-04 20:52:00,36.7,31.1,29.68,NW,306,21.0,22.0,80,0.00,,,0.06,0,Wunderground v.1.15,2013-02-04 20:52:00,
2013-02-04 20:57:00,36.6,30.7,29.68,ENE,57,21.0,24.0,79,0.00,,,0.06,0,Wunderground v.1.15,2013-02-04 20:57:00,
2013-02-04 21:03:00,36.5,30.6,29.68,NNW,344,21.0,28.0,79,0.00,,,0.06,0,Wunderground v.1.15,2013-02-04 21:03:00,
2013-02-04 21:08:00,36.5,30.6,29.69,South,181,22.0,28.0,79,0.00,,,0.06,0,Wunderground v.1.15,2013-02-04 21:08:00,
2013-02-04 21:14:00,36.5,30.6,29.68,NW,315,21.0,25.0,79,0.00,,,0.06,0,Wunderground v.1.15,2013-02-04 21:14:00,
2013-02-04 21:19:00,36.4,30.2,29.68,ENE,59,20.0,27.0,78,0.00,,,0.06,0,Wunderground v.1.15,2013-02-04 21:19:00,
2013-02-04 21:25:00,36.5,30.6,29.68,North,4,19.0,26.0,79,0.00,,,0.06,0,Wunderground v.1.15,2013-02-04 21:25:00,
2013-02-04 21:30:00,36.5,30.3,29.69,NE,40,19.0,22.0,78,0.00,,,0.06,0,Wunderground v.1.15,2013-02-04 21:30:00,
2013-02-04 21:36:00,36.5,30.3,29.68,NE,53,17.0,22.0,78,0.00,,,0.06,0,Wunderground v.1.15,2013-02-04 21:36:00,
2013-02-04 21:41:00,36.4,30.2,29.68,NNE,25,16.0,18.0,78,0.00,,,0.06,0,Wunderground v.1.15,2013-02-04 21:41:00,
2013-02-04 21:47:00,36.3,30.1,29.68,NW,305,16.0,23.0,78,0.00,,,0.06,0,Wunderground v.1.15,2013-02-04 21:47:00,
2013-02-04 21:52:00,36.0,29.8,29.68,North,353,17.0,22.0,78,0.00,,,0.06,0,Wunderground v.1.15,2013-02-04 21:52:00,
2013-02-04 21:57:00,35.7,29.5,29.67,WNW,300,17.0,22.0,78,0.00,,,0.06,0,Wunderground v.1.15,2013-02-04 21:57:00,
2013-02-04 22:02:00,35.4,29.2,29.67,ENE,65,15.0,16.0,78,0.00,,,0.06,0,Wunderground v.1.15,2013-02-04 22:02:00,
2013-02-04 22:08:00,35.1,28.6,29.67,North,9,16.0,20.0,77,0.00,,,0.06,0,Wunderground v.1.15,2013-02-04 22:08:00,
2013-02-04 22:13:00,34.9,28.4,29.67,NW,305,17.0,20.0,77,0.00,,,0.06,0,Wunderground v.1.15,2013-02-04 22:13:00,
2013-02-04 22:18:00,34.7,28.2,29.67,WNW,288,17.0,21.0,77,0.00,,,0.06,0,Wunderground v.1.15,2013-02-04 22:18:00,
2013-02-04 22:23:00,34.6,27.8,29.67,West,260,18.0,23.0,76,0.00,,,0.06,0,Wunderground v.1.15,2013-02-04 22:23:00,
2013-02-04 22:29:00,34.7,28.2,29.67,North,4,19.0,23.0,77,0.00,,,0.06,0,Wunderground v.1.15,2013-02-04 22:29:00,
2013-02-04 22:34:00,34.7,28.5,29.66,North,9,18.0,19.0,78,0.00,,,0.06,0,Wunderground v.1.15,2013-02-04 22:34:00,
2013-02-04 22:40:00,34.7,28.5,29.66,WSW,242,19.0,19.0,78,0.00,,,0.06,0,Wunderground v.1.15,2013-02-04 22:40:00,
2013-02-04 22:45:00,34.6,28.8,29.66,NW,305,19.0,20.0,79,0.00,,,0.06,0,Wunderground v.1.15,2013-02-04 22:45:00,
2013-02-04 22:50:00,34.6,28.8,29.65,North,4,18.0,18.0,79,0.00,,,0.06,0,Wunderground v.1.15,2013-02-04 22:50:00,
2013-02-04 22:56:00,34.7,28.9,29.65,WNW,288,19.0,24.0,79,0.00,,,0.06,0,Wunderground v.1.15,2013-02-04 22:56:00,
2013-02-04 23:01:00,34.8,29.3,29.65,East,91,19.0,19.0,80,0.00,,,0.06,0,Wunderground v.1.15,2013-02-04 23:01:00,
2013-02-04 23:07:00,34.8,29.3,29.66,South,180,18.0,22.0,80,0.00,,,0.06,0,Wunderground v.1.15,2013-02-04 23:07:00,
2013-02-04 23:12:00,34.9,29.4,29.65,NW,309,19.0,31.0,80,0.00,,,0.06,0,Wunderground v.1.15,2013-02-04 23:12:00,
2013-02-04 23:18:00,34.9,29.0,29.66,SSE,168,19.0,31.0,79,0.00,,,0.06,0,Wunderground v.1.15,2013-02-04 23:18:00,
2013-02-04 23:23:00,34.8,29.0,29.66,NW,317,19.0,23.0,79,0.00,,,0.06,0,Wunderground v.1.15,2013-02-04 23:23:00,
2013-02-04 23:29:00,34.3,28.5,29.66,North,4,18.0,23.0,79,0.00,,,0.06,0,Wunderground v.1.15,2013-02-04 23:29:00,
2013-02-04 23:34:00,33.9,27.4,29.66,NW,310,15.0,17.0,77,0.00,,,0.06,0,Wunderground v.1.15,2013-02-04 23:34:00,
2013-02-04 23:40:00,34.0,27.5,29.66,North,4,15.0,15.0,77,0.00,,,0.06,0,Wunderground v.1.15,2013-02-04 23:40:00,
2013-02-04 23:45:00,34.0,27.5,29.65,North,4,15.0,20.0,77,0.00,,,0.06,0,Wunderground v.1.15,2013-02-04 23:45:00,
2013-02-04 23:50:00,34.0,27.5,29.65,ESE,113,17.0,24.0,77,0.00,,,0.06,0,Wunderground v.1.15,2013-02-04 23:50:00,
2013-02-04 23:55:00,33.9,27.4,29.65,NW,315,17.0,24.0,77,0.00,,,0.06,0,Wunderground v.1.15,2013-02-04 23:55:00,